Weather History for Belleville, IL

Change the Weather History Date:

Friday, October 19, 2012

  Actual Average Record
Temperature  
Mean Temperature 50 °F -  
Max Temperature 54 °F 65 °F 88 °F (1953)
Min Temperature 48 °F 41 °F 24 °F (1992)
Degree Days  
Heating Degree Days 14    
Moisture  
Dew Point 43 °F    
Average Humidity 75    
Maximum Humidity 87    
Minimum Humidity 57    
Precipitation  
Precipitation 0.00 in - - ()
Sea Level Pressure  
Sea Level Pressure 29.64 in    
Wind  
Wind Speed 12 mph (West)    
Max Wind Speed 21 mph    
Max Gust Speed 26 mph    
Visibility 10 miles    
Events Rain    
Averages and records for this station are not official NWS values.
T = Trace of Precipitation, MM = Missing Value Source: NWS Daily Summary

Daily Weather History Graph

Daily Weather History Graph

Search for Another Location

Airport:

Trip Planner

Search our weather history database for the weather conditions in past years. The results will help you decide how hot, cold, wet, or windy it might be!

Date:

Astronomy

Oct. 19, 2012 Rise Set
Actual Time 7:12 AM CDT 6:14 PM CDT
Civil Twilight 6:46 AM CDT 6:41 PM CDT
Nautical Twilight 6:15 AM CDT 7:12 PM CDT
Astronomical Twilight 5:44 AM CDT 7:43 PM CDT
Moon 11:53 AM CDT (10/19) 9:55 PM CDT (10/19)
Length of Visible Light 11h 55m
Length of Day
11h 01m
Waxing Crescent, 24% of the Moon is Illuminated
Oct 19
Waxing Crescent
Oct 21
First Quarter
Oct 29
Full
Nov 6
Last Quarter
Nov 13
New

Hourly Weather History & Observations

Time (CDT) Temp. Dew Point Humidity Pressure Visibility Wind Dir Wind Speed Gust Speed Precip Events Conditions
12:16 AM 51.8 °F 41.0 °F 67% 29.58 in 10.0 mi WSW 9.2 mph - N/A Rain Light Rain
12:32 AM 51.8 °F 41.0 °F 67% 29.57 in 10.0 mi WSW 11.5 mph - N/A   Clear
12:55 AM 51.4 °F 40.3 °F 66% 29.57 in 10.0 mi WSW 13.8 mph 21.9 mph 0.00 in Rain Light Rain
1:00 AM 51.8 °F 39.2 °F 62% 29.56 in 10.0 mi WSW 13.8 mph - N/A   Scattered Clouds
1:55 AM 53.1 °F 37.9 °F 57% 29.56 in 10.0 mi WSW 9.2 mph - 0.00 in   Overcast
2:55 AM 52.7 °F 39.0 °F 60% 29.56 in 10.0 mi West 18.4 mph 25.3 mph N/A   Overcast
3:05 AM 51.8 °F 41.0 °F 67% 29.56 in 10.0 mi West 18.4 mph - N/A   Light Drizzle
3:25 AM 50.0 °F 41.0 °F 71% 29.56 in 10.0 mi West 15.0 mph - N/A   Overcast
3:55 AM 51.4 °F 40.1 °F 65% 29.56 in 10.0 mi West 11.5 mph - 0.00 in   Overcast
4:55 AM 50.4 °F 41.4 °F 71% 29.56 in 10.0 mi West 11.5 mph - N/A   Overcast
4:59 AM 50.0 °F 41.0 °F 71% 29.56 in 10.0 mi West 17.3 mph 21.9 mph N/A   Light Drizzle
5:08 AM 50.0 °F 41.0 °F 71% 29.57 in 10.0 mi WNW 11.5 mph - N/A   Overcast
5:16 AM 50.0 °F 42.8 °F 76% 29.57 in 10.0 mi West 11.5 mph - N/A   Overcast
5:29 AM 50.0 °F 42.8 °F 76% 29.57 in 10.0 mi West 8.1 mph - N/A   Overcast
5:43 AM 50.0 °F 41.0 °F 71% 29.57 in 10.0 mi West 11.5 mph 17.3 mph N/A   Overcast
5:55 AM 49.6 °F 42.4 °F 76% 29.57 in 10.0 mi West 12.7 mph 19.6 mph 0.00 in Rain Light Rain
6:05 AM 48.2 °F 42.8 °F 82% 29.57 in 10.0 mi West 13.8 mph 21.9 mph N/A Rain Light Rain
6:08 AM 48.2 °F 42.8 °F 82% 29.57 in 10.0 mi West 11.5 mph 21.9 mph N/A   Overcast
6:15 AM 48.2 °F 42.8 °F 82% 29.57 in 10.0 mi West 9.2 mph - N/A   Overcast
6:19 AM 48.2 °F 42.8 °F 82% 29.57 in 10.0 mi West 9.2 mph - N/A   Light Drizzle
6:29 AM 48.2 °F 42.8 °F 82% 29.57 in 10.0 mi West 9.2 mph - N/A   Overcast
6:36 AM 48.2 °F 42.8 °F 82% 29.57 in 10.0 mi West 9.2 mph - N/A Rain Light Rain
6:55 AM 48.2 °F 43.3 °F 83% 29.57 in 10.0 mi WSW 10.4 mph - 0.00 in   Overcast
7:42 AM 48.2 °F 42.8 °F 82% 29.58 in 10.0 mi West 12.7 mph - N/A Rain Light Rain
7:55 AM 48.4 °F 43.0 °F 82% 29.58 in 10.0 mi West 9.2 mph - 0.00 in Rain Light Rain
8:22 AM 48.2 °F 44.6 °F 87% 29.60 in 10.0 mi West 11.5 mph - N/A   Overcast
8:55 AM 48.2 °F 44.2 °F 86% 29.60 in 10.0 mi West 13.8 mph - 0.00 in   Overcast
9:00 AM 48.2 °F 44.6 °F 87% 29.60 in 10.0 mi West 11.5 mph - N/A   Overcast
9:16 AM 48.2 °F 44.6 °F 87% 29.60 in 10.0 mi West 11.5 mph - N/A   Overcast
9:55 AM 49.5 °F 45.0 °F 84% 29.61 in 10.0 mi WSW 12.7 mph - 0.00 in   Overcast
10:21 AM 50.0 °F 44.6 °F 82% 29.61 in 10.0 mi West 13.8 mph 23.0 mph N/A   Light Drizzle
10:31 AM 50.0 °F 44.6 °F 82% 29.62 in 10.0 mi West 13.8 mph - N/A   Overcast
10:55 AM 50.9 °F 44.8 °F 80% 29.62 in 10.0 mi West 20.7 mph 26.5 mph 0.00 in   Overcast
11:18 AM 51.8 °F 42.8 °F 71% 29.63 in 10.0 mi NNW 8.1 mph - N/A   Overcast
11:55 AM 50.0 °F 44.6 °F 82% 29.65 in 10.0 mi WNW 12.7 mph - N/A   Overcast
12:31 PM 51.8 °F 42.8 °F 71% 29.65 in 10.0 mi WNW 11.5 mph - N/A   Overcast
12:55 PM 51.4 °F 42.6 °F 72% 29.66 in 10.0 mi West 17.3 mph 23.0 mph N/A   Overcast
1:01 PM 51.8 °F 42.8 °F 71% 29.66 in 10.0 mi WNW 15.0 mph 23.0 mph N/A   Overcast
1:35 PM 53.6 °F 42.8 °F 67% 29.66 in 10.0 mi West 11.5 mph 19.6 mph N/A   Overcast
1:41 PM 53.6 °F 42.8 °F 67% 29.66 in 10.0 mi West 15.0 mph 20.7 mph N/A   Overcast
1:55 PM 52.5 °F 41.9 °F 67% 29.67 in 10.0 mi West 13.8 mph 20.7 mph N/A   Overcast
2:09 PM 51.8 °F 42.8 °F 71% 29.68 in 10.0 mi West 17.3 mph 26.5 mph N/A   Overcast
2:18 PM 51.8 °F 42.8 °F 71% 29.68 in 10.0 mi West 15.0 mph - N/A   Overcast
2:55 PM 53.2 °F 42.3 °F 66% 29.70 in 10.0 mi West 17.3 mph 26.5 mph N/A   Overcast
3:55 PM 53.2 °F 43.5 °F 70% 29.71 in 10.0 mi West 16.1 mph - N/A   Overcast
4:55 PM 53.6 °F 43.5 °F 69% 29.73 in 10.0 mi West 10.4 mph - N/A   Overcast
5:01 PM 53.6 °F 42.8 °F 67% 29.73 in 10.0 mi West 11.5 mph - N/A   Overcast
5:15 PM 53.6 °F 42.8 °F 67% 29.74 in 10.0 mi West 11.5 mph - N/A   Overcast
5:55 PM 52.9 °F 42.8 °F 69% 29.74 in 10.0 mi West 9.2 mph - N/A   Overcast
6:55 PM 52.3 °F 43.3 °F 71% 29.76 in 10.0 mi WSW 16.1 mph - N/A   Overcast
7:55 PM 50.5 °F 43.3 °F 76% 29.78 in 10.0 mi West 10.4 mph - N/A   Overcast
8:32 PM 50.0 °F 42.8 °F 76% 29.78 in 10.0 mi WSW 8.1 mph - N/A   Mostly Cloudy
8:55 PM 50.4 °F 43.5 °F 77% 29.78 in 10.0 mi WSW 8.1 mph - N/A   Overcast
9:34 PM 48.2 °F 44.6 °F 87% 29.79 in 10.0 mi West 6.9 mph - N/A   Mostly Cloudy
9:51 PM 48.2 °F 44.6 °F 87% 29.80 in 10.0 mi West 5.8 mph - N/A   Mostly Cloudy
9:55 PM 48.2 °F 43.9 °F 85% 29.80 in 10.0 mi West 6.9 mph - N/A   Mostly Cloudy
10:41 PM 50.0 °F 44.6 °F 82% 29.80 in 10.0 mi West 11.5 mph - N/A   Overcast
10:55 PM 49.5 °F 44.4 °F 83% 29.80 in 10.0 mi West 9.2 mph - N/A   Overcast
11:55 PM 48.7 °F 44.1 °F 84% 29.80 in 10.0 mi West 10.4 mph - N/A   Overcast